Weather History for Norfolk, NE

Change the Weather History Date:

Tuesday, August 27, 2013

  Actual Average Record
Temperature  
Mean Temperature 83 °F 71 °F  
Max Temperature 92 °F 83 °F 102 °F (1955)
Min Temperature 73 °F 59 °F 38 °F (1911)
Degree Days  
Heating Degree Days 0 1  
Month to date heating degree days 3 4  
Since 1 June heating degree days 58 38  
Since 1 July heating degree days 16 8  
Cooling Degree Days 18 7  
Month to date cooling degree days 230 231  
Year to date cooling degree days 768 792  
Since 1 June cooling degree days 704 731  
Growing Degree Days 32 (Base 50)    
Moisture  
Dew Point 68 °F    
Average Humidity 63    
Maximum Humidity 73    
Minimum Humidity 52    
Precipitation  
Precipitation 0.00 in 0.09 in 1.59 in (1942)
Month to date precipitation 3.58 2.87  
Year to date precipitation 18.41 20.15  
Snow  
Snow 0.00 in 0.00 in - ()
Month to date snowfall 0.0 0.0  
Since 1 July snowfall 0.0 0.0  
Snow Depth 0.00 in    
Sea Level Pressure  
Sea Level Pressure 29.87 in    
Wind  
Wind Speed 12 mph (SSW)    
Max Wind Speed 18 mph    
Max Gust Speed 24 mph    
Visibility 10 miles    
Events      
T = Trace of Precipitation, MM = Missing Value Source: NWS Daily Summary

Daily Weather History Graph

Daily Weather History Graph

Search for Another Location

Airport:

Trip Planner

Search our weather history database for the weather conditions in past years. The results will help you decide how hot, cold, wet, or windy it might be!

Date:

Astronomy

Aug. 27, 2013 Rise Set
Actual Time 6:50 AM CDT 8:11 PM CDT
Civil Twilight 6:21 AM CDT 8:40 PM CDT
Nautical Twilight 5:46 AM CDT 9:14 PM CDT
Astronomical Twilight 5:09 AM CDT 9:51 PM CDT
Moon 11:57 PM CDT (8/27) 1:57 PM CDT (8/27)
Length of Visible Light 14h 18m
Length of Day
13h 20m
Waning Gibbous, 57% of the Moon is Illuminated
Aug 27
Waning Gibbous
Aug 28
Last Quarter
Sep 5
New
Sep 12
First Quarter
Sep 19
Full

Hourly Weather History & Observations

Time (CDT) Temp. Heat Index Dew Point Humidity Pressure Visibility Wind Dir Wind Speed Gust Speed Precip Events Conditions
12:56 AM 79.0 °F - 66.0 °F 64% 29.87 in 10.0 mi SSW 15.0 mph - N/A   Clear
1:56 AM 78.1 °F - 64.9 °F 64% 29.87 in 10.0 mi SSW 15.0 mph - N/A   Clear
2:56 AM 77.0 °F - 64.9 °F 66% 29.87 in 10.0 mi SSW 13.8 mph - N/A   Clear
3:56 AM 75.0 °F - 64.9 °F 71% 29.88 in 10.0 mi SSW 10.4 mph - N/A   Clear
4:56 AM 75.0 °F - 64.0 °F 69% 29.88 in 10.0 mi SSW 3.5 mph - N/A   Clear
5:56 AM 73.9 °F - 64.0 °F 71% 29.87 in 10.0 mi SSW 9.2 mph - N/A   Clear
6:56 AM 73.0 °F - 64.0 °F 73% 29.87 in 10.0 mi SSW 12.7 mph - N/A   Clear
7:56 AM 75.0 °F - 64.0 °F 69% 29.88 in 10.0 mi SW 8.1 mph - N/A   Clear
8:56 AM 78.1 °F - 64.9 °F 64% 29.88 in 10.0 mi SW 12.7 mph - N/A   Clear
9:56 AM 81.0 °F 83.0 °F 66.0 °F 60% 29.88 in 10.0 mi SW 15.0 mph - N/A   Clear
10:56 AM 84.0 °F 86.5 °F 66.9 °F 56% 29.89 in 10.0 mi WSW 11.5 mph - N/A   Clear
11:56 AM 86.0 °F 89.4 °F 68.0 °F 55% 29.88 in 10.0 mi SSW 11.5 mph - N/A   Clear
12:56 PM 88.0 °F 92.9 °F 70.0 °F 55% 29.88 in 10.0 mi SSW 9.2 mph - N/A   Clear
1:56 PM 90.0 °F 97.9 °F 73.0 °F 57% 29.87 in 10.0 mi South 10.4 mph - N/A   Clear
2:56 PM 90.0 °F 97.9 °F 73.0 °F 57% 29.87 in 10.0 mi South 11.5 mph - N/A   Clear
3:56 PM 91.9 °F 98.4 °F 71.1 °F 50% 29.86 in 10.0 mi South 15.0 mph - N/A   Clear
4:56 PM 91.9 °F 99.5 °F 72.0 °F 52% 29.86 in 10.0 mi SSW 13.8 mph - N/A   Clear
5:56 PM 91.9 °F 99.5 °F 72.0 °F 52% 29.86 in 10.0 mi SSW 16.1 mph 21.9 mph N/A   Clear
6:56 PM 89.1 °F 96.0 °F 72.0 °F 57% 29.85 in 10.0 mi South 9.2 mph - N/A   Clear
7:56 PM 84.9 °F 91.4 °F 73.0 °F 67% 29.86 in 10.0 mi South 8.1 mph - N/A   Clear
8:56 PM 82.9 °F 87.5 °F 71.1 °F 67% 29.86 in 10.0 mi South 10.4 mph - N/A   Clear
9:56 PM 82.0 °F 85.5 °F 69.1 °F 65% 29.87 in 10.0 mi South 11.5 mph - N/A   Clear
10:56 PM 80.1 °F 82.3 °F 66.9 °F 64% 29.88 in 10.0 mi South 12.7 mph - N/A   Clear
11:56 PM 77.0 °F - 64.9 °F 66% 29.88 in 10.0 mi South 12.7 mph - N/A   Clear